Time,TemperatureF,DewpointF,PressureIn,WindDirection,WindDirectionDegrees,WindSpeedMPH,WindSpeedGustMPH,Humidity,HourlyPrecipIn,Conditions,Clouds,dailyrainin,SoftwareType,DateUTC
2013-02-26 00:00:00,41.4,30.1,29.69,NNW,338,9.6,14.3,64,0.00,,---,0.00,VWS V14.00,2013-02-26 06:00:00,
2013-02-26 00:10:00,41.4,30.1,29.69,WNW,290,5.8,15.9,64,0.00,,---,0.00,VWS V14.00,2013-02-26 06:10:00,
2013-02-26 00:20:00,41.4,30.1,29.69,NNW,346,5.8,12.5,64,0.00,,---,0.00,VWS V14.00,2013-02-26 06:20:00,
2013-02-26 00:30:00,41.2,29.9,29.69,NNW,347,6.3,11.2,64,0.00,,---,0.00,VWS V14.00,2013-02-26 06:30:00,
2013-02-26 00:40:00,41.2,29.9,29.69,WNW,295,9.6,13.9,64,0.00,,---,0.00,VWS V14.00,2013-02-26 06:40:00,
2013-02-26 00:50:00,41.2,29.6,29.69,NW,318,4.0,12.1,63,0.00,,---,0.00,VWS V14.00,2013-02-26 06:50:00,
2013-02-26 01:00:00,41.2,29.6,29.69,NW,315,4.9,10.5,63,0.00,,---,0.00,VWS V14.00,2013-02-26 07:00:00,
2013-02-26 01:10:00,41.2,29.2,29.69,WNW,299,5.8,13.0,62,0.00,,---,0.00,VWS V14.00,2013-02-26 07:10:00,
2013-02-26 01:20:00,41.0,29.0,29.72,North,351,9.2,14.8,62,0.00,,---,0.00,VWS V14.00,2013-02-26 07:20:00,
2013-02-26 01:30:00,41.0,29.0,29.72,NNW,328,7.8,13.9,62,0.00,,---,0.00,VWS V14.00,2013-02-26 07:30:00,
2013-02-26 01:40:00,41.0,29.0,29.72,WNW,288,4.5,14.8,62,0.00,,---,0.00,VWS V14.00,2013-02-26 07:40:00,
2013-02-26 01:50:00,41.0,28.6,29.72,NW,311,4.5,11.2,61,0.00,,---,0.00,VWS V14.00,2013-02-26 07:50:00,
2013-02-26 02:00:00,41.0,29.0,29.72,NNW,328,5.8,10.1,62,0.00,,---,0.00,VWS V14.00,2013-02-26 08:00:00,
2013-02-26 02:10:00,41.0,29.0,29.72,WNW,291,6.3,9.2,62,0.00,,---,0.00,VWS V14.00,2013-02-26 08:10:00,
2013-02-26 02:20:00,41.0,29.0,29.72,North,351,4.0,13.9,62,0.00,,---,0.00,VWS V14.00,2013-02-26 08:20:00,
2013-02-26 02:30:00,40.8,28.8,29.72,NNE,15,6.3,17.2,62,0.00,,---,0.00,VWS V14.00,2013-02-26 08:30:00,
2013-02-26 02:40:00,41.0,29.0,29.72,NNW,327,11.0,12.1,62,0.00,,---,0.00,VWS V14.00,2013-02-26 08:40:00,
2013-02-26 02:50:00,41.0,29.0,29.72,NNW,340,6.9,13.9,62,0.00,,---,0.00,VWS V14.00,2013-02-26 08:50:00,
2013-02-26 03:00:00,41.2,29.2,29.72,WNW,291,4.9,11.2,62,0.00,,---,0.00,VWS V14.00,2013-02-26 09:00:00,
2013-02-26 03:10:00,41.2,28.8,29.72,West,274,7.4,14.3,61,0.00,,---,0.00,VWS V14.00,2013-02-26 09:10:00,
2013-02-26 03:20:00,41.0,28.6,29.72,WNW,301,6.7,14.8,61,0.00,,---,0.00,VWS V14.00,2013-02-26 09:20:00,
2013-02-26 03:30:00,41.0,28.6,29.72,NW,306,8.3,11.0,61,0.00,,---,0.00,VWS V14.00,2013-02-26 09:30:00,
2013-02-26 03:40:00,41.2,28.8,29.72,NNW,345,8.3,14.3,61,0.00,,---,0.00,VWS V14.00,2013-02-26 09:40:00,
2013-02-26 03:50:00,41.2,28.8,29.72,NW,325,6.3,13.9,61,0.00,,---,0.00,VWS V14.00,2013-02-26 09:50:00,
2013-02-26 03:59:00,41.2,28.8,29.72,WNW,296,4.5,12.1,61,0.00,,---,0.00,VWS V14.00,2013-02-26 09:59:00,
2013-02-26 04:09:00,41.2,28.8,29.72,NW,319,3.6,9.6,61,0.00,,---,0.00,VWS V14.00,2013-02-26 10:09:00,
2013-02-26 04:19:00,41.0,28.6,29.72,NW,319,2.7,10.1,61,0.00,,---,0.00,VWS V14.00,2013-02-26 10:19:00,
2013-02-26 04:29:00,41.0,28.6,29.72,NW,315,4.5,11.0,61,0.00,,---,0.00,VWS V14.00,2013-02-26 10:29:00,
2013-02-26 04:39:00,40.8,28.4,29.72,North,11,7.4,10.1,61,0.00,,---,0.00,VWS V14.00,2013-02-26 10:39:00,
2013-02-26 04:49:00,40.8,28.0,29.75,NW,322,7.4,12.5,60,0.00,,---,0.00,VWS V14.00,2013-02-26 10:49:00,
2013-02-26 04:59:00,40.6,28.3,29.75,NW,322,7.8,12.1,61,0.00,,---,0.00,VWS V14.00,2013-02-26 10:59:00,
2013-02-26 05:09:00,40.6,28.3,29.75,WNW,287,3.6,11.2,61,0.00,,---,0.00,VWS V14.00,2013-02-26 11:09:00,
2013-02-26 05:19:00,40.5,28.1,29.75,NNW,336,4.0,15.2,61,0.00,,---,0.00,VWS V14.00,2013-02-26 11:19:00,
2013-02-26 05:29:00,40.5,28.1,29.75,West,281,5.4,10.5,61,0.00,,---,0.00,VWS V14.00,2013-02-26 11:29:00,
2013-02-26 05:39:00,40.3,27.9,29.75,NW,322,4.9,11.0,61,0.00,,---,0.00,VWS V14.00,2013-02-26 11:39:00,
2013-02-26 05:49:00,40.3,27.9,29.78,NNW,335,6.9,11.2,61,0.00,,---,0.00,VWS V14.00,2013-02-26 11:49:00,
2013-02-26 05:59:00,40.1,27.8,29.78,NNW,331,4.5,12.5,61,0.00,,---,0.00,VWS V14.00,2013-02-26 11:59:00,
2013-02-26 06:09:00,39.9,28.0,29.78,NNW,334,4.5,9.6,62,0.00,,---,0.00,VWS V14.00,2013-02-26 12:09:00,
2013-02-26 06:19:00,39.9,28.0,29.78,NW,304,3.6,8.7,62,0.00,,---,0.00,VWS V14.00,2013-02-26 12:19:00,
2013-02-26 06:29:00,39.9,28.0,29.78,NW,308,4.5,9.6,62,0.00,,---,0.00,VWS V14.00,2013-02-26 12:29:00,
2013-02-26 06:39:00,39.9,28.0,29.80,NNW,343,6.9,12.1,62,0.00,,---,0.00,VWS V14.00,2013-02-26 12:39:00,
2013-02-26 06:49:00,39.7,27.8,29.80,WNW,292,8.7,11.0,62,0.00,,---,0.00,VWS V14.00,2013-02-26 12:49:00,
2013-02-26 06:59:00,39.7,27.8,29.80,NW,308,5.8,10.1,62,0.00,,---,0.00,VWS V14.00,2013-02-26 12:59:00,
2013-02-26 07:09:00,39.7,27.8,29.80,NNW,339,6.9,12.1,62,0.00,,---,0.00,VWS V14.00,2013-02-26 13:09:00,
2013-02-26 07:19:00,39.7,27.8,29.80,NW,322,10.1,12.1,62,0.00,,---,0.00,VWS V14.00,2013-02-26 13:19:00,
2013-02-26 07:29:00,39.9,28.4,29.80,WNW,294,4.9,11.0,63,0.00,,---,0.00,VWS V14.00,2013-02-26 13:29:00,
2013-02-26 07:39:00,40.1,28.1,29.83,NNW,329,7.8,11.0,62,0.00,,---,0.00,VWS V14.00,2013-02-26 13:39:00,
2013-02-26 07:49:00,40.3,28.3,29.83,WNW,285,5.4,9.6,62,0.00,,---,0.00,VWS V14.00,2013-02-26 13:49:00,
2013-02-26 07:59:00,40.5,28.5,29.83,NNW,334,6.9,11.0,62,0.00,,---,0.00,VWS V14.00,2013-02-26 13:59:00,
2013-02-26 08:09:00,40.6,28.6,29.80,NW,319,3.6,9.6,62,0.00,,---,0.00,VWS V14.00,2013-02-26 14:09:00,
2013-02-26 08:19:00,41.0,29.4,29.83,NW,317,4.9,9.6,63,0.00,,---,0.00,VWS V14.00,2013-02-26 14:19:00,
2013-02-26 08:29:00,41.4,29.3,29.83,NNW,327,4.0,11.6,62,0.00,,---,0.00,VWS V14.00,2013-02-26 14:29:00,
2013-02-26 08:39:00,41.5,29.5,29.83,NW,308,4.9,10.1,62,0.00,,---,0.00,VWS V14.00,2013-02-26 14:39:00,
2013-02-26 08:49:00,41.5,29.5,29.83,North,356,5.8,10.5,62,0.00,,---,0.00,VWS V14.00,2013-02-26 14:49:00,
2013-02-26 08:59:00,41.7,29.7,29.83,NNW,334,4.9,9.2,62,0.00,,---,0.00,VWS V14.00,2013-02-26 14:59:00,
2013-02-26 09:10:00,42.3,30.2,29.83,WNW,297,2.7,9.6,62,0.00,,---,0.00,VWS V14.00,2013-02-26 15:10:00,
2013-02-26 09:19:00,42.8,30.3,29.83,NNW,330,11.2,12.1,61,0.00,,---,0.00,VWS V14.00,2013-02-26 15:19:00,
2013-02-26 09:29:00,43.0,30.1,29.83,NW,305,6.7,11.6,60,0.00,,---,0.00,VWS V14.00,2013-02-26 15:29:00,
2013-02-26 09:39:00,43.5,30.6,29.86,NNW,331,4.9,9.2,60,0.00,,---,0.00,VWS V14.00,2013-02-26 15:39:00,
2013-02-26 09:49:00,44.2,30.8,29.86,NNW,342,8.3,12.5,59,0.00,,---,0.00,VWS V14.00,2013-02-26 15:49:00,
2013-02-26 09:59:00,45.1,31.7,29.86,NNW,330,6.9,11.2,59,0.00,,---,0.00,VWS V14.00,2013-02-26 15:59:00,
2013-02-26 10:09:00,45.9,31.9,29.86,NNW,344,6.7,10.5,58,0.00,,---,0.00,VWS V14.00,2013-02-26 16:09:00,
2013-02-26 10:19:00,46.6,32.2,29.86,NNW,345,4.0,10.5,57,0.00,,---,0.00,VWS V14.00,2013-02-26 16:19:00,
2013-02-26 10:29:00,47.1,32.2,29.86,NNE,19,6.3,11.0,56,0.00,,---,0.00,VWS V14.00,2013-02-26 16:29:00,
2013-02-26 10:39:00,47.8,32.5,29.86,NNW,327,4.9,7.8,55,0.00,,---,0.00,VWS V14.00,2013-02-26 16:39:00,
2013-02-26 10:49:00,48.4,32.5,29.86,NNW,330,6.9,8.7,54,0.00,,---,0.00,VWS V14.00,2013-02-26 16:49:00,
2013-02-26 10:59:00,48.7,32.4,29.86,North,356,6.7,10.1,53,0.00,,---,0.00,VWS V14.00,2013-02-26 16:59:00,
2013-02-26 11:09:00,49.3,32.4,29.86,North,1,7.4,11.0,52,0.00,,---,0.00,VWS V14.00,2013-02-26 17:09:00,
2013-02-26 11:19:00,50.2,32.8,29.86,WSW,248,5.8,9.2,51,0.00,,---,0.00,VWS V14.00,2013-02-26 17:19:00,
2013-02-26 11:29:00,50.2,32.3,29.86,NW,309,6.3,11.6,50,0.00,,---,0.00,VWS V14.00,2013-02-26 17:29:00,
2013-02-26 11:39:00,50.5,32.1,29.89,NW,319,3.1,11.0,49,0.00,,---,0.00,VWS V14.00,2013-02-26 17:39:00,
2013-02-26 11:50:00,51.3,32.3,29.89,NW,324,6.9,10.1,48,0.00,,---,0.00,VWS V14.00,2013-02-26 17:50:00,
2013-02-26 11:59:00,51.8,32.2,29.89,NNW,335,4.0,9.6,47,0.00,,---,0.00,VWS V14.00,2013-02-26 17:59:00,
2013-02-26 12:09:00,52.3,32.7,29.89,NW,320,5.8,12.1,47,0.00,,---,0.00,VWS V14.00,2013-02-26 18:09:00,
2013-02-26 12:19:00,52.5,32.9,29.86,WNW,282,6.7,9.6,47,0.00,,---,0.00,VWS V14.00,2013-02-26 18:19:00,
2013-02-26 12:29:00,53.1,32.3,29.86,NNW,329,4.0,11.2,45,0.00,,---,0.00,VWS V14.00,2013-02-26 18:29:00,
2013-02-26 12:39:00,54.0,33.1,29.86,NNW,345,5.4,9.6,45,0.00,,---,0.00,VWS V14.00,2013-02-26 18:39:00,
2013-02-26 12:49:00,54.3,32.9,29.86,NNW,338,4.9,7.8,44,0.00,,---,0.00,VWS V14.00,2013-02-26 18:49:00,
2013-02-26 12:59:00,54.7,32.6,29.86,WNW,303,4.9,8.3,43,0.00,,---,0.00,VWS V14.00,2013-02-26 18:59:00,
2013-02-26 13:09:00,55.6,33.5,29.86,WNW,303,5.8,9.2,43,0.00,,---,0.00,VWS V14.00,2013-02-26 19:09:00,
2013-02-26 13:19:00,56.5,33.1,29.86,North,351,5.4,8.7,41,0.00,,---,0.00,VWS V14.00,2013-02-26 19:19:00,
2013-02-26 13:29:00,57.2,33.7,29.86,North,351,6.7,7.4,41,0.00,,---,0.00,VWS V14.00,2013-02-26 19:29:00,
2013-02-26 13:39:00,57.0,33.0,29.83,NNW,342,0.0,10.5,40,0.00,,---,0.00,VWS V14.00,2013-02-26 19:39:00,
2013-02-26 13:49:00,57.7,33.0,29.83,NW,321,4.0,10.1,39,0.00,,---,0.00,VWS V14.00,2013-02-26 19:49:00,
2013-02-26 13:59:00,58.1,33.3,29.83,North,356,4.5,8.3,39,0.00,,---,0.00,VWS V14.00,2013-02-26 19:59:00,
2013-02-26 14:09:00,58.1,33.3,29.83,NNW,339,6.3,7.4,39,0.00,,---,0.00,VWS V14.00,2013-02-26 20:09:00,
2013-02-26 14:19:00,58.6,33.1,29.83,NW,325,4.5,8.3,38,0.00,,---,0.00,VWS V14.00,2013-02-26 20:19:00,
2013-02-26 14:30:00,58.6,33.1,29.83,WNW,282,0.0,8.3,38,0.00,,---,0.00,VWS V14.00,2013-02-26 20:30:00,
2013-02-26 14:39:00,59.4,33.1,29.83,West,275,3.1,7.8,37,0.00,,---,0.00,VWS V14.00,2013-02-26 20:39:00,
2013-02-26 14:49:00,60.3,33.9,29.83,WSW,257,2.7,10.1,37,0.00,,---,0.00,VWS V14.00,2013-02-26 20:49:00,
2013-02-26 14:59:00,59.7,33.4,29.83,NNE,14,4.9,7.4,37,0.00,,---,0.00,VWS V14.00,2013-02-26 20:59:00,
2013-02-26 15:09:00,60.8,33.7,29.80,NNW,327,4.5,11.0,36,0.00,,---,0.00,VWS V14.00,2013-02-26 21:09:00,
2013-02-26 15:19:00,61.5,34.3,29.80,NNW,342,7.8,7.8,36,0.00,,---,0.00,VWS V14.00,2013-02-26 21:19:00,
2013-02-26 15:29:00,61.5,34.3,29.80,NNW,340,0.0,9.6,36,0.00,,---,0.00,VWS V14.00,2013-02-26 21:29:00,
2013-02-26 15:39:00,62.6,34.6,29.80,NNW,337,7.8,7.8,35,0.00,,---,0.00,VWS V14.00,2013-02-26 21:39:00,
2013-02-26 15:49:00,63.0,34.9,29.80,NNW,343,5.4,8.7,35,0.00,,---,0.00,VWS V14.00,2013-02-26 21:49:00,
2013-02-26 15:59:00,61.9,34.0,29.80,NW,319,5.4,9.2,35,0.00,,---,0.00,VWS V14.00,2013-02-26 21:59:00,
2013-02-26 16:09:00,62.1,33.4,29.80,NW,318,3.1,6.3,34,0.00,,---,0.00,VWS V14.00,2013-02-26 22:09:00,
2013-02-26 16:19:00,61.5,33.6,29.80,West,275,3.1,5.8,35,0.00,,---,0.00,VWS V14.00,2013-02-26 22:19:00,
2013-02-26 16:29:00,61.3,33.5,29.80,WSW,258,2.7,5.4,35,0.00,,---,0.00,VWS V14.00,2013-02-26 22:29:00,
2013-02-26 16:39:00,61.7,33.1,29.80,NNW,343,5.4,6.3,34,0.00,,---,0.00,VWS V14.00,2013-02-26 22:39:00,
2013-02-26 16:49:00,60.6,32.1,29.80,NNE,15,4.5,6.9,34,0.00,,---,0.00,VWS V14.00,2013-02-26 22:49:00,
2013-02-26 16:59:00,60.1,31.6,29.80,NNW,333,0.0,6.7,34,0.00,,---,0.00,VWS V14.00,2013-02-26 22:59:00,
2013-02-26 17:09:00,59.2,31.6,29.80,NNW,346,4.9,5.4,35,0.00,,---,0.00,VWS V14.00,2013-02-26 23:09:00,
2013-02-26 17:19:00,58.3,30.8,29.80,NNE,20,0.0,5.8,35,0.00,,---,0.00,VWS V14.00,2013-02-26 23:19:00,
2013-02-26 17:29:00,57.9,30.5,29.80,North,351,0.0,4.9,35,0.00,,---,0.00,VWS V14.00,2013-02-26 23:29:00,
2013-02-26 17:39:00,57.4,30.0,29.80,NNW,342,0.0,4.5,35,0.00,,---,0.00,VWS V14.00,2013-02-26 23:39:00,
2013-02-26 17:49:00,56.8,29.5,29.80,NNW,343,0.0,0.0,35,0.00,,---,0.00,VWS V14.00,2013-02-26 23:49:00,
2013-02-26 17:59:00,56.3,29.0,29.80,NNW,343,3.1,3.6,35,0.00,,---,0.00,VWS V14.00,2013-02-26 23:59:00,
2013-02-26 18:09:00,55.8,28.5,29.80,NNW,346,0.0,4.0,35,0.00,,---,0.00,VWS V14.00,2013-02-27 00:09:00,
2013-02-26 18:19:00,54.7,28.3,29.80,NNW,344,0.0,0.0,36,0.00,,---,0.00,VWS V14.00,2013-02-27 00:19:00,
2013-02-26 18:29:00,53.8,27.5,29.80,NNW,343,0.0,0.0,36,0.00,,---,0.00,VWS V14.00,2013-02-27 00:29:00,
2013-02-26 18:39:00,52.9,26.7,29.83,NNW,346,0.0,0.0,36,0.00,,---,0.00,VWS V14.00,2013-02-27 00:39:00,
2013-02-26 18:49:00,51.6,26.2,29.83,NNW,344,0.0,0.0,37,0.00,,---,0.00,VWS V14.00,2013-02-27 00:49:00,
2013-02-26 18:59:00,50.9,25.6,29.83,NNW,345,0.0,0.0,37,0.00,,---,0.00,VWS V14.00,2013-02-27 00:59:00,
2013-02-26 19:09:00,50.0,24.8,29.83,NNW,346,0.0,0.0,37,0.00,,---,0.00,VWS V14.00,2013-02-27 01:09:00,
2013-02-26 19:19:00,49.1,24.6,29.83,NNW,345,0.0,0.0,38,0.00,,---,0.00,VWS V14.00,2013-02-27 01:19:00,
2013-02-26 19:29:00,48.6,24.1,29.83,NNW,344,0.0,0.0,38,0.00,,---,0.00,VWS V14.00,2013-02-27 01:29:00,
2013-02-26 19:39:00,48.0,24.3,29.83,NNW,347,0.0,0.0,39,0.00,,---,0.00,VWS V14.00,2013-02-27 01:39:00,
2013-02-26 19:49:00,47.5,23.8,29.83,NNW,345,0.0,0.0,39,0.00,,---,0.00,VWS V14.00,2013-02-27 01:49:00,
2013-02-26 19:59:00,46.8,24.3,29.83,NNW,343,0.0,0.0,41,0.00,,---,0.00,VWS V14.00,2013-02-27 01:59:00,
2013-02-26 20:09:00,46.2,23.8,29.83,NNW,344,0.0,0.0,41,0.00,,---,0.00,VWS V14.00,2013-02-27 02:09:00,
2013-02-26 20:20:00,45.7,24.5,29.83,NNW,347,0.0,0.0,43,0.00,,---,0.00,VWS V14.00,2013-02-27 02:20:00,
2013-02-26 20:30:00,45.3,24.7,29.83,NNW,343,0.0,0.0,44,0.00,,---,0.00,VWS V14.00,2013-02-27 02:30:00,
2013-02-26 20:39:00,45.0,25.4,29.86,NNW,347,0.0,0.0,46,0.00,,---,0.00,VWS V14.00,2013-02-27 02:39:00,
2013-02-26 20:49:00,44.8,25.3,29.86,NNW,343,0.0,0.0,46,0.00,,---,0.00,VWS V14.00,2013-02-27 02:49:00,
2013-02-26 20:59:00,44.6,25.6,29.86,NNW,345,0.0,0.0,47,0.00,,---,0.00,VWS V14.00,2013-02-27 02:59:00,
2013-02-26 21:09:00,44.1,25.6,29.86,NNW,343,0.0,0.0,48,0.00,,---,0.00,VWS V14.00,2013-02-27 03:09:00,
2013-02-26 21:19:00,44.1,25.6,29.86,NNW,344,0.0,0.0,48,0.00,,---,0.00,VWS V14.00,2013-02-27 03:19:00,
2013-02-26 21:29:00,43.7,25.8,29.86,NNW,343,0.0,0.0,49,0.00,,---,0.00,VWS V14.00,2013-02-27 03:29:00,
2013-02-26 21:39:00,43.7,26.3,29.86,NNW,347,0.0,0.0,50,0.00,,---,0.00,VWS V14.00,2013-02-27 03:39:00,
2013-02-26 21:49:00,43.5,26.1,29.86,NNW,345,0.0,0.0,50,0.00,,---,0.00,VWS V14.00,2013-02-27 03:49:00,
2013-02-26 21:59:00,43.3,26.4,29.86,NNW,345,0.0,0.0,51,0.00,,---,0.00,VWS V14.00,2013-02-27 03:59:00,
2013-02-26 22:09:00,43.3,26.4,29.86,NNW,343,0.0,0.0,51,0.00,,---,0.00,VWS V14.00,2013-02-27 04:09:00,
2013-02-26 22:19:00,43.0,26.1,29.86,NNW,346,0.0,0.0,51,0.00,,---,0.00,VWS V14.00,2013-02-27 04:19:00,
2013-02-26 22:29:00,43.3,26.9,29.86,ENE,74,0.0,3.6,52,0.00,,---,0.00,VWS V14.00,2013-02-27 04:29:00,
2013-02-26 22:39:00,43.7,27.2,29.86,East,93,2.7,4.9,52,0.00,,---,0.00,VWS V14.00,2013-02-27 04:39:00,
2013-02-26 22:49:00,44.4,27.9,29.86,East,93,4.0,4.0,52,0.00,,---,0.00,VWS V14.00,2013-02-27 04:49:00,
2013-02-26 22:59:00,44.4,27.9,29.86,East,81,3.6,4.0,52,0.00,,---,0.00,VWS V14.00,2013-02-27 04:59:00,
2013-02-26 23:09:00,44.4,27.9,29.86,East,93,0.0,4.0,52,0.00,,---,0.00,VWS V14.00,2013-02-27 05:09:00,
2013-02-26 23:19:00,44.4,27.9,29.86,ENE,66,0.0,4.5,52,0.00,,---,0.00,VWS V14.00,2013-02-27 05:19:00,
2013-02-26 23:29:00,45.0,28.4,29.86,ENE,57,0.0,4.0,52,0.00,,---,0.00,VWS V14.00,2013-02-27 05:29:00,
2013-02-26 23:39:00,45.1,28.6,29.86,ENE,75,0.0,4.0,52,0.00,,---,0.00,VWS V14.00,2013-02-27 05:39:00,
2013-02-26 23:49:00,45.0,28.4,29.86,East,80,0.0,4.0,52,0.00,,---,0.00,VWS V14.00,2013-02-27 05:49:00,
2013-02-26 23:59:00,44.2,27.7,29.86,East,80,0.0,0.0,52,0.00,,---,0.00,VWS V14.00,2013-02-27 05:59:00,